Theta_e
356 355 359 357 356 355 356 355 359 359 361 358 360 358 356 356 358 356 356 355 354 352 350 349 347 343 344 340 339 341 344 346 347 349 352 358 357 361 365 364 363 363 363 362 362 361 361 360 359 358 358 358 356 357 357 358 358 357 357 356 356 356 356 356 356 355 355 355 355 354 354 354 354 353 353 354 354 354 354 354 354 354 353 352 353
353 355 354 355 356 356 358 358 361 357 358 359 362 359 357 356 357 358 357 354 351 351 354 349 344 344 341 341 342 343 344 342 344 346 353 358 356 360 365 365 363 363 362 362 361 361 361 361 360 359 358 357 357 357 357 357 357 357 358 357 356 356 355 355 356 356 356 355 355 355 354 354 354 354 354 354 354 354 354 354 354 354 354 354 354
356 357 356 356 356 357 359 356 355 356 360 359 360 359 358 356 356 356 354 354 353 352 352 347 344 343 343 343 342 344 344 342 341 343 354 357 355 359 362 366 364 363 362 361 361 360 359 360 360 360 359 358 358 358 358 358 357 357 358 357 357 356 356 355 356 356 357 356 356 356 355 355 355 355 355 355 355 355 355 355 354 355 355 355 355
357 361 359 356 356 355 357 354 355 359 362 357 358 361 360 358 359 356 355 356 354 353 352 347 343 344 343 343 343 344 343 343 341 342 353 357 357 358 360 362 365 363 363 362 361 361 360 359 360 359 359 359 358 358 359 358 357 357 358 357 358 357 357 356 356 356 356 356 356 356 356 356 356 356 355 355 356 355 355 355 355 355 355 355 355
362 358 369 358 356 355 355 357 359 358 359 359 360 361 360 356 356 359 356 353 351 351 352 348 344 344 342 344 342 341 346 341 341 344 351 357 357 358 358 360 361 364 363 362 362 362 361 360 359 359 359 359 358 359 359 359 357 357 357 357 357 356 357 356 356 356 356 356 357 357 357 357 356 356 356 356 356 356 356 356 356 356 356 356 356
362 361 359 357 357 357 356 358 359 359 360 359 356 360 356 354 353 355 357 354 350 348 347 343 343 344 343 344 345 346 344 339 342 340 341 349 356 357 357 359 359 359 361 363 363 362 361 361 359 359 359 358 358 358 358 357 357 356 356 356 356 357 357 356 356 356 356 356 356 356 356 357 357 356 356 356 356 356 356 356 356 356 355 356 356
366 362 359 358 357 357 358 358 360 361 358 359 357 357 357 354 356 351 351 349 348 349 347 345 342 343 343 347 344 345 343 341 343 342 342 343 348 354 357 358 357 358 359 360 362 362 361 361 360 359 358 358 359 359 358 357 357 356 356 355 356 357 357 357 356 356 356 354 354 354 354 356 356 356 357 356 356 356 356 356 356 356 356 356 356
365 365 360 359 357 357 358 360 360 359 357 357 358 355 352 353 356 352 348 348 348 343 343 342 345 341 342 346 347 351 342 342 340 339 343 337 342 348 353 356 356 356 362 358 359 361 362 360 358 358 358 358 358 359 358 357 356 356 355 356 356 356 356 356 355 355 355 355 354 354 354 355 356 356 356 357 357 357 356 356 357 357 356 356 356
364 366 362 359 358 357 360 361 362 357 356 356 354 355 352 354 350 354 350 349 346 344 343 343 341 343 339 343 343 345 343 345 344 342 351 344 342 343 347 352 357 362 355 356 357 359 361 360 358 357 356 358 357 358 357 357 357 356 356 355 356 356 356 356 356 355 355 355 354 354 355 355 356 356 356 356 356 357 356 357 356 356 357 357 357
364 362 362 362 360 359 358 361 359 358 355 353 352 354 352 352 349 351 351 345 343 343 340 338 341 340 337 340 340 343 343 343 341 353 343 343 341 342 345 351 349 349 352 356 358 359 359 359 359 357 357 356 357 357 357 357 356 356 355 356 356 356 356 357 356 355 355 354 354 355 355 356 356 356 356 355 354 355 355 355 356 356 356 357 357
363 364 362 362 360 360 358 360 359 357 354 353 352 352 352 350 349 351 352 346 343 340 338 337 339 342 341 340 343 341 341 345 352 346 344 342 342 346 345 344 347 348 350 353 355 356 355 354 353 354 354 356 356 356 357 357 357 356 357 357 355 355 356 356 356 355 355 355 354 354 354 355 356 356 355 355 355 355 355 355 354 354 355 355 356
363 362 360 359 360 358 358 358 358 356 355 353 352 350 350 349 346 336 334 341 345 342 340 341 341 338 345 341 343 341 340 346 341 339 346 342 338 339 339 339 342 346 350 352 352 352 352 352 356 352 353 355 356 356 355 355 355 355 355 354 353 354 356 356 355 355 355 354 354 354 354 355 355 356 356 355 354 355 355 355 355 355 354 355 356
363 362 361 363 360 360 358 356 357 356 354 353 352 350 350 348 347 346 335 337 336 347 341 342 335 335 340 338 338 342 350 348 341 340 340 338 334 332 333 332 332 337 345 350 352 353 353 352 352 352 351 350 353 355 355 355 355 354 354 353 353 354 354 355 355 355 355 355 356 354 354 354 353 355 355 354 355 354 355 355 355 355 355 354 354
363 362 363 358 353 355 356 355 355 355 354 357 350 356 343 341 345 339 344 336 337 340 339 336 335 331 331 334 336 336 343 345 340 339 337 333 332 331 331 330 331 333 341 345 347 349 350 351 352 351 350 351 350 350 351 352 352 353 353 352 352 353 354 354 354 354 354 355 354 353 354 354 353 354 353 353 353 353 354 354 355 355 355 355 354
363 364 362 358 353 353 356 355 354 355 352 343 345 339 340 343 340 337 334 341 339 347 340 335 329 334 336 331 327 328 336 334 342 341 328 329 329 329 331 330 331 332 333 334 337 338 341 343 346 350 351 350 349 350 350 353 351 351 349 348 350 352 352 352 353 353 353 353 353 353 353 353 353 353 353 353 353 353 353 353 354 354 355 355 355
364 364 362 356 353 354 355 354 353 351 345 344 342 340 344 341 342 344 337 331 334 339 346 342 336 332 326 326 327 329 326 327 332 337 332 327 329 330 330 329 331 333 330 331 336 338 339 338 337 340 348 350 350 348 347 346 350 348 346 344 344 345 348 350 350 351 351 351 352 352 351 351 351 352 353 353 353 352 353 353 353 352 353 354 354
360 360 360 357 354 355 353 353 351 347 348 346 344 344 339 341 341 342 337 336 333 337 342 338 337 337 333 330 325 325 325 329 329 331 337 328 327 328 333 328 329 333 329 331 334 335 336 337 337 339 343 349 348 347 348 346 342 343 341 342 341 342 344 346 346 346 346 346 347 348 349 349 350 350 351 352 352 352 353 353 352 352 352 353 353
359 358 358 358 355 355 351 350 346 345 346 342 339 341 339 340 339 339 337 342 337 336 337 342 342 344 337 334 328 326 326 328 327 321 332 334 330 329 330 328 330 333 330 332 336 334 338 335 334 336 339 345 346 347 346 343 346 337 333 337 340 340 341 342 342 342 342 342 342 343 343 344 345 346 348 349 350 351 352 352 352 352 352 352 352
359 359 358 356 353 352 350 349 346 347 351 345 342 344 341 341 341 344 342 346 338 334 333 336 339 338 341 338 340 342 335 328 322 326 321 324 333 325 327 329 330 331 332 328 331 329 332 334 331 332 334 339 341 342 338 339 344 341 342 340 338 339 339 339 339 339 339 339 339 340 340 340 340 341 342 343 345 347 348 349 350 351 351 352 352
358 357 355 354 353 352 351 348 346 345 349 337 338 339 343 346 345 343 343 343 342 335 333 336 335 334 342 338 336 337 334 329 331 323 323 319 321 327 323 325 328 328 331 330 329 327 331 330 327 332 328 331 337 336 335 337 338 338 339 340 339 338 338 338 339 339 336 337 337 338 339 339 339 339 340 340 341 342 343 344 345 346 348 350 351
356 355 353 352 356 351 350 348 346 345 352 342 341 344 343 340 340 339 338 340 343 342 338 334 334 336 333 331 335 334 334 332 333 333 325 317 318 320 322 329 327 328 326 328 328 332 333 330 331 335 336 333 333 334 333 332 333 334 341 342 341 339 338 338 338 339 338 336 336 336 337 338 338 339 339 339 340 340 341 341 342 343 344 345 347
353 354 353 352 353 352 349 349 346 347 348 341 338 342 342 342 341 340 341 339 344 338 338 339 338 336 338 333 332 332 329 329 329 327 327 322 318 321 322 322 321 325 334 327 330 332 330 332 336 332 333 335 329 332 334 333 333 333 338 343 341 341 339 339 339 338 338 337 336 336 336 337 337 338 339 339 339 339 339 340 340 340 341 342 343
352 353 353 352 353 353 348 349 345 350 347 341 338 342 341 341 340 342 342 339 337 340 342 344 343 339 337 333 334 328 328 330 326 327 327 325 323 323 325 328 326 324 332 335 333 331 331 331 332 331 332 335 330 332 334 334 339 336 339 344 343 342 342 341 341 339 340 338 337 337 336 336 336 337 337 338 339 339 339 339 339 339 339 339 340
351 351 352 352 353 351 350 348 348 348 340 345 341 340 341 341 340 341 340 338 337 341 336 332 338 334 335 336 335 335 335 334 332 328 327 325 323 322 323 325 327 328 334 333 337 333 333 333 333 332 335 334 334 336 336 337 338 342 342 345 343 343 343 343 341 341 341 341 340 339 338 337 337 336 335 336 337 338 338 338 338 338 338 339 339
350 350 351 351 352 349 348 347 346 344 340 338 343 340 340 340 341 341 340 338 339 340 338 341 336 336 332 335 335 333 334 334 336 334 335 331 328 324 328 326 322 325 330 330 328 333 335 334 336 337 338 337 341 337 334 334 335 344 347 344 342 343 343 343 343 343 342 341 341 340 340 339 338 338 337 337 336 336 336 337 337 337 337 337 337
351 349 350 351 351 351 349 349 347 342 339 337 341 342 342 339 341 339 338 339 340 336 337 338 335 338 336 329 333 336 333 335 335 332 332 329 324 323 325 327 327 326 327 330 335 327 329 335 334 335 334 336 339 340 340 337 337 350 348 336 340 341 342 341 342 342 342 342 341 341 341 340 340 340 340 340 338 337 336 337 338 337 337 337 336
352 350 352 351 350 350 349 349 346 343 341 338 341 342 342 343 341 338 340 338 339 338 336 337 338 335 337 336 337 333 336 337 334 335 332 332 330 330 326 322 323 324 325 326 329 326 325 329 334 335 333 335 337 336 336 335 338 351 353 340 335 340 339 340 340 340 340 340 340 341 340 341 340 341 341 340 340 340 338 338 337 337 337 337 336
352 351 351 351 350 349 349 346 344 343 342 340 340 340 340 342 340 339 340 342 338 339 336 335 336 335 335 333 333 332 334 334 334 337 335 334 334 333 330 324 319 316 321 320 323 324 331 327 331 335 336 336 337 337 343 342 338 348 351 338 334 336 340 339 339 338 338 338 339 339 339 339 340 340 341 341 340 339 339 338 338 337 336 336 337
352 352 350 351 350 349 347 345 343 342 342 341 342 340 340 340 340 337 338 338 338 337 337 336 336 336 333 336 334 333 334 337 335 336 336 336 335 334 332 328 324 319 317 317 318 322 325 330 326 336 335 336 336 337 339 337 338 342 339 337 334 333 337 338 339 337 338 338 338 338 338 338 338 338 339 340 339 339 339 339 338 337 337 336 336
353 352 352 350 348 352 345 345 343 341 341 343 342 341 339 338 340 338 337 338 337 337 337 335 335 335 336 335 336 334 338 334 335 336 337 336 335 335 334 334 330 324 321 318 317 324 325 329 327 327 338 339 340 340 338 336 341 343 336 336 335 335 336 337 337 337 337 337 336 335 336 337 337 337 337 336 337 337 338 339 339 338 337 337 336
354 350 349 350 348 347 344 344 344 342 341 342 342 341 339 338 339 338 339 338 339 337 336 336 336 338 336 335 337 336 338 335 336 337 341 336 335 336 335 336 334 329 327 323 319 324 330 325 329 334 331 330 333 334 336 338 340 342 337 335 335 338 339 337 336 335 334 334 333 333 333 333 333 334 334 334 334 335 336 337 337 337 338 337 338
353 350 348 350 349 346 344 344 344 342 341 342 341 341 338 337 338 338 338 338 337 339 336 336 336 337 336 334 336 335 335 333 333 334 336 337 336 335 335 335 334 333 331 328 324 324 329 328 328 330 332 331 332 331 330 333 340 346 336 334 334 340 338 335 337 335 334 333 333 332 331 330 331 332 333 333 334 335 337 336 335 335 335 335 334
352 350 347 348 348 347 344 344 343 342 341 341 341 340 338 337 337 338 337 338 336 336 338 335 336 335 334 332 333 333 335 334 333 336 336 334 334 332 334 333 332 333 331 328 325 326 327 330 331 331 332 332 331 331 330 332 334 335 339 334 335 334 334 333 334 337 336 333 332 332 331 331 331 331 332 333 333 335 336 337 335 334 333 333 332
352 351 348 347 348 347 345 344 343 342 342 341 341 339 340 336 337 340 338 337 337 336 336 335 334 336 335 334 333 334 335 333 333 334 334 334 333 333 332 332 329 330 331 329 326 323 322 324 329 331 332 334 330 331 330 330 331 334 333 334 335 334 334 334 334 335 337 335 332 330 330 330 330 331 331 331 332 333 333 334 333 332 331 331 330
353 352 350 348 347 346 345 344 343 342 342 341 341 339 339 338 337 338 338 337 336 336 335 334 335 335 334 335 334 335 338 334 335 334 334 332 331 330 332 334 330 330 333 330 326 324 323 324 327 328 328 330 330 330 331 333 334 334 331 331 332 335 336 334 333 333 335 334 332 331 329 329 329 329 329 330 330 330 330 329 328 328 328 327 327
352 352 351 348 346 345 344 343 342 341 341 341 340 339 338 338 338 337 337 337 336 336 335 334 334 335 333 332 333 334 335 333 333 333 333 333 332 332 331 332 331 332 331 331 330 326 325 324 326 328 329 329 330 332 334 335 333 332 331 331 332 332 333 335 334 333 334 333 331 330 329 328 327 327 327 327 327 326 325 325 324 325 325 324 324
353 352 351 349 347 345 344 343 341 341 341 341 340 339 339 339 338 338 337 336 337 337 336 335 339 335 334 333 333 334 334 332 333 332 332 332 332 331 329 331 331 331 333 333 331 330 327 326 326 328 330 330 331 332 332 331 331 330 329 329 330 330 331 332 334 335 334 332 331 330 329 328 328 327 327 326 326 325 324 323 323 323 322 322 322
352 352 351 349 347 345 344 343 342 341 341 341 340 340 339 339 338 338 338 337 337 337 337 336 337 336 335 334 334 334 334 333 333 333 333 331 331 330 329 330 332 333 332 331 331 330 328 327 326 327 327 329 328 329 331 331 329 327 326 326 326 328 329 329 331 334 335 334 333 333 331 330 329 328 327 327 326 325 324 323 322 321 320 319 317
352 351 351 349 348 347 345 343 342 341 341 341 340 340 340 339 338 338 338 338 337 337 337 337 337 336 336 335 334 335 334 334 332 331 331 331 332 330 331 330 330 331 331 331 332 331 330 329 328 328 327 328 328 325 327 330 329 327 325 323 323 326 328 329 329 332 333 333 332 332 331 331 330 329 324 323 324 324 324 323 322 320 320 318 316
351 352 351 350 348 347 346 343 342 342 342 341 340 340 340 340 339 338 338 338 337 337 337 337 336 336 336 336 336 335 335 335 333 332 332 331 332 330 331 331 332 332 330 329 328 327 326 327 326 325 325 326 324 327 329 326 323 322 325 325 322 322 323 324 327 327 329 330 329 331 332 331 329 328 325 325 326 325 324 324 325 325 323 320 318
352 352 352 351 348 346 346 344 342 341 341 342 341 340 340 340 340 339 338 338 337 337 337 337 336 336 336 337 337 337 339 343 345 341 339 338 332 329 329 332 332 329 328 329 329 327 326 326 326 326 324 324 324 324 322 321 319 320 322 323 322 323 325 325 326 328 330 328 327 328 327 328 327 327 328 327 328 329 328 329 328 330 327 321 320
352 352 352 351 349 347 345 343 342 341 341 342 337 330 334 340 340 340 339 338 338 337 337 336 336 336 335 336 338 344 346 348 349 347 343 342 340 333 330 332 333 330 329 327 326 325 325 324 325 324 322 322 322 322 321 321 322 322 322 322 321 323 323 323 324 326 329 328 326 324 324 327 328 326 325 324 326 328 326 324 323 324 324 322 322
352 352 352 350 348 347 345 343 342 342 342 341 330 328 330 334 339 339 337 337 338 337 337 336 334 335 335 335 334 341 345 346 345 347 345 343 342 339 338 337 337 332 328 326 326 326 325 325 323 323 322 321 321 322 322 323 323 322 322 323 323 322 321 318 317 321 327 326 323 321 321 324 325 321 321 321 322 322 323 323 325 325 323 322 321
353 352 351 350 348 347 345 344 342 342 342 332 326 327 329 330 334 339 336 337 338 337 336 336 335 335 335 335 336 337 337 339 340 341 344 344 340 339 337 336 335 335 333 330 328 326 325 324 322 322 321 320 321 322 322 322 322 322 324 323 322 320 319 317 316 316 320 325 320 319 318 320 321 320 319 321 322 322 323 323 323 323 322 321 321
353 352 350 349 347 346 345 343 342 342 342 331 325 326 328 328 330 335 334 335 337 336 337 336 335 335 335 335 335 336 338 346 344 340 338 339 338 335 334 334 334 331 328 328 329 331 328 325 324 322 322 321 320 322 325 325 325 323 322 321 321 319 319 317 316 316 318 322 319 317 315 317 319 319 318 320 321 322 323 324 323 322 321 320 320
353 352 350 348 347 345 345 344 342 342 342 329 324 323 325 326 327 331 333 336 337 337 337 337 337 336 336 335 335 335 338 340 338 337 335 334 334 334 332 332 332 335 332 326 324 324 328 329 325 323 324 324 324 325 328 327 325 323 320 319 318 316 316 316 317 316 318 322 318 316 314 315 317 317 316 318 321 321 322 322 321 320 321 320 319
353 351 350 347 346 345 345 345 343 342 342 325 321 321 322 322 324 329 334 336 337 337 338 338 337 337 336 337 337 338 338 336 337 339 338 338 336 335 335 334 335 335 335 335 332 328 328 328 327 326 325 326 326 327 328 329 328 325 322 319 318 317 316 316 316 318 319 321 320 317 312 314 316 316 316 318 319 318 318 318 318 317 317 315 316
353 352 350 348 346 345 346 345 343 340 341 321 320 320 320 321 324 332 333 334 335 336 337 338 337 338 337 337 339 338 337 335 338 335 338 336 334 334 333 334 335 335 335 335 330 332 334 330 328 327 328 328 328 330 330 327 322 320 323 320 318 317 315 314 313 315 316 319 319 316 313 312 313 313 313 314 314 312 314 313 315 315 314 314 315
350 349 348 347 347 346 345 345 343 342 338 321 318 317 318 319 322 333 331 332 334 336 336 335 337 337 338 338 339 339 337 335 331 326 331 341 333 333 332 332 334 334 333 334 329 325 325 323 322 323 323 321 318 314 314 315 319 318 316 314 314 315 311 310 312 312 314 316 317 317 314 312 311 309 307 309 309 309 308 308 309 312 313 312 313
348 348 347 346 346 346 345 344 343 341 333 322 315 315 316 316 323 332 332 331 332 334 335 334 334 335 340 348 342 334 332 331 324 324 326 334 333 333 332 331 331 331 331 332 332 330 324 319 317 317 317 317 317 316 315 314 313 315 314 313 315 314 312 312 310 312 314 316 318 317 307 307 308 306 305 306 308 308 308 308 310 313 315 313 313
349 349 347 346 345 344 343 342 339 337 332 322 313 315 315 314 323 332 332 331 330 331 333 333 333 332 333 339 339 336 333 325 318 320 321 329 330 331 332 329 328 328 328 325 326 324 323 324 324 326 325 324 324 322 324 321 318 319 318 317 317 314 313 313 314 313 312 312 315 311 306 304 305 306 305 304 304 307 311 311 313 313 315 317 318
Wind_Speed
5 5 4 5 4 4 3 4 3 3 3 3 3 2 2 1 2 2 2 3 4 3 2 3 3 5 4 3 0 1 4 6 6 6 4 5 6 9 13 13 12 12 12 12 12 13 13 13 13 14 13 12 11 11 12 12 12 12 12 12 12 12 11 11 11 11 10 10 10 10 10 10 10 10 9 9 9 8 8 8 8 7 7 6 5
5 5 5 4 4 4 4 3 4 4 3 4 2 3 2 3 2 2 3 3 3 4 3 3 3 3 2 1 2 2 3 2 6 5 4 6 6 6 14 13 14 13 13 12 13 13 13 13 13 12 12 12 12 12 12 12 12 12 12 13 13 12 13 12 12 12 12 11 11 11 11 11 11 11 11 11 11 10 9 9 9 8 8 7 6
6 5 4 5 4 4 3 3 4 4 4 4 2 3 3 3 2 1 1 1 2 5 4 3 3 4 2 6 2 3 2 3 4 4 8 6 5 6 9 15 13 13 13 13 12 12 13 13 14 13 13 12 13 13 12 10 7 10 12 12 13 13 14 14 14 14 13 12 12 12 12 12 12 12 12 12 11 11 11 10 10 10 9 8 7
4 5 6 5 4 4 3 3 3 3 4 5 3 2 3 3 3 1 1 1 3 5 4 3 2 2 3 3 4 3 2 3 4 1 5 5 5 6 4 6 11 12 11 11 12 12 12 13 13 13 13 13 13 14 13 11 10 8 9 12 12 13 13 12 12 12 11 11 12 12 12 11 11 11 11 11 11 11 11 11 11 10 10 10 9
4 4 5 6 5 5 3 3 3 4 4 3 3 2 3 2 1 1 2 1 2 4 4 3 2 0 3 0 1 3 2 3 3 2 8 6 6 5 4 4 4 9 11 10 10 11 10 11 12 13 13 13 13 13 13 11 11 10 6 7 11 11 12 11 11 11 12 13 13 13 12 12 11 11 11 11 11 11 11 11 11 11 11 10 10
4 3 3 5 5 5 5 4 3 3 4 3 3 3 4 2 1 1 2 0 2 5 5 1 1 2 0 2 1 2 2 4 3 2 6 6 6 6 6 5 5 5 4 8 8 8 8 9 9 10 12 12 13 13 11 12 10 10 8 6 7 8 11 11 10 10 10 7 6 8 10 12 12 12 12 12 12 12 11 11 12 12 11 11 11
4 3 3 3 4 5 5 5 4 3 4 3 4 4 2 1 2 1 2 1 2 3 2 1 2 1 2 3 2 1 2 4 4 3 4 5 6 6 6 6 5 5 5 4 7 9 10 10 10 9 10 11 12 12 11 10 11 10 9 8 10 11 9 10 6 7 7 7 8 8 8 10 13 13 12 13 12 12 13 13 12 12 12 11 12
4 4 4 3 2 4 5 5 4 4 4 3 3 4 2 1 1 1 1 2 0 3 3 4 1 4 3 1 0 0 3 3 1 3 0 6 7 6 6 5 4 4 5 5 4 6 9 8 8 9 9 9 10 10 9 10 10 10 10 11 12 12 11 9 8 7 10 9 9 9 10 11 11 13 13 13 13 12 13 13 13 12 13 12 12
5 4 4 3 3 3 5 6 5 5 4 4 4 4 3 2 2 2 1 1 1 2 3 2 1 1 1 3 1 2 3 2 1 2 0 2 5 7 7 6 5 6 4 5 5 4 6 9 7 8 7 8 8 8 9 10 10 10 11 11 11 12 13 12 11 10 9 11 11 12 11 11 12 13 14 14 14 13 13 13 13 13 13 13 13
6 4 3 3 3 3 5 6 5 5 4 3 4 3 2 3 2 2 2 1 1 1 2 2 2 2 4 2 2 3 1 1 0 0 3 3 4 5 6 6 6 5 5 5 5 4 4 6 7 6 7 7 7 7 7 7 8 8 8 10 12 12 12 12 11 11 11 11 12 12 12 11 12 12 13 13 13 13 13 13 13 14 14 13 13
5 4 3 2 2 2 6 5 6 5 5 4 3 3 2 3 2 3 1 2 2 3 2 2 3 3 1 3 2 2 0 1 0 2 2 2 3 5 7 5 6 6 6 5 4 4 4 3 3 1 2 6 7 6 6 5 6 7 8 10 10 7 11 11 11 11 10 11 11 12 13 12 12 12 12 12 12 12 12 11 13 13 14 13 14
5 4 3 2 1 2 6 5 5 5 5 4 4 4 3 3 3 3 1 1 2 3 3 1 1 1 1 1 2 3 1 2 1 3 3 1 4 5 6 5 4 4 6 5 5 5 4 3 3 3 2 2 4 2 4 3 2 3 5 5 7 11 12 10 10 10 11 12 12 12 12 12 12 13 13 13 12 11 11 11 12 12 14 13 14
5 5 4 2 3 5 6 5 5 5 5 4 4 5 3 3 2 1 2 1 1 1 1 3 2 1 3 3 2 1 2 2 2 2 2 2 4 6 6 6 5 6 5 5 5 5 4 3 3 3 3 3 2 3 4 3 3 2 2 3 2 4 5 6 7 8 9 11 12 12 12 12 13 13 13 13 12 11 10 10 10 10 11 14 15
5 4 4 5 5 5 5 6 6 5 4 4 4 3 3 3 3 1 1 2 1 2 2 3 2 1 0 1 1 4 3 1 3 3 3 5 5 6 6 6 7 7 7 6 5 5 4 4 3 3 2 3 3 3 2 3 3 4 4 2 0 1 2 3 4 6 7 8 9 10 10 10 11 12 13 13 12 12 11 10 11 11 11 13 15
5 5 5 5 5 6 5 5 5 4 4 4 4 4 2 3 4 3 0 0 1 1 3 3 2 0 1 3 0 1 3 3 2 2 6 4 6 6 6 7 8 7 7 6 6 5 5 4 4 4 4 3 4 3 3 4 3 6 5 6 5 3 2 1 2 2 3 4 5 5 5 6 7 10 11 11 12 11 12 12 11 12 11 12 13
6 6 5 6 6 5 5 4 5 4 5 5 4 4 3 3 3 3 2 2 1 1 2 3 2 4 1 1 1 1 1 1 2 2 3 5 7 6 5 5 7 6 6 7 6 6 5 4 4 6 6 5 4 3 4 3 4 5 5 5 5 3 2 1 1 3 4 4 4 3 2 2 3 3 6 7 9 11 11 12 11 11 12 14 13
6 6 6 6 5 5 5 5 5 5 4 5 4 5 4 4 4 4 3 2 1 1 1 2 4 3 4 2 2 2 1 2 1 1 2 5 6 7 5 5 5 6 6 6 6 6 6 5 4 4 7 6 5 5 5 3 3 3 3 5 5 4 3 3 3 2 2 3 2 2 3 3 4 5 7 7 7 7 8 9 11 13 12 13 14
6 6 6 5 7 7 5 6 6 5 4 4 4 4 4 4 4 4 3 2 3 3 1 1 4 4 3 3 3 3 3 2 3 0 4 1 5 5 5 6 6 6 5 5 6 6 5 6 5 6 8 8 7 6 6 5 4 4 3 3 6 5 3 3 2 2 2 2 2 2 1 2 3 4 5 6 7 7 7 7 7 9 11 12 13
7 6 6 7 7 7 6 6 6 5 4 4 4 4 4 6 3 5 5 4 4 3 1 1 2 1 2 1 1 1 4 2 1 0 2 4 5 3 5 3 5 6 5 5 7 5 5 4 5 5 6 8 7 6 6 6 7 7 8 8 8 6 5 4 2 1 1 0 1 1 2 2 2 3 4 5 6 6 6 6 6 6 7 10 11
7 6 7 7 7 7 7 7 6 5 5 5 4 3 3 3 4 5 5 5 5 4 2 3 2 1 1 2 2 2 2 3 2 4 3 1 3 3 3 2 2 3 6 4 5 5 5 4 5 4 4 7 8 7 7 6 6 6 6 10 9 9 8 6 6 4 4 3 3 3 3 3 3 3 4 5 6 6 6 6 6 6 6 7 7
9 7 8 8 6 7 7 7 7 6 4 6 4 3 6 7 5 4 4 4 4 3 3 3 3 2 3 2 2 1 1 0 2 2 1 1 0 2 2 3 1 2 6 5 4 5 5 6 4 4 6 5 7 7 6 6 6 5 7 12 11 11 10 9 8 7 6 5 4 4 5 5 5 4 5 5 5 6 6 6 7 7 7 7 7
9 8 9 8 7 6 6 7 8 7 5 6 5 6 6 7 7 6 5 4 3 3 2 3 3 1 3 4 2 1 1 2 0 2 2 1 2 1 3 2 1 1 3 6 4 5 5 5 4 4 6 6 5 7 7 6 6 5 7 13 13 12 12 10 10 9 8 7 7 6 6 6 6 6 5 6 6 5 6 6 7 7 7 7 7
9 7 9 9 7 6 7 6 6 6 7 6 5 7 6 7 6 6 5 5 4 3 2 3 3 2 2 4 4 4 4 2 4 2 2 1 2 2 1 1 0 1 0 2 4 5 5 4 5 5 4 5 6 6 7 7 7 7 12 14 13 13 12 11 10 10 9 8 8 8 7 7 7 7 7 7 7 7 7 6 6 6 7 7 7
9 7 8 9 8 7 7 6 5 6 7 6 5 8 7 6 6 6 6 6 4 4 3 4 3 4 2 3 3 2 1 3 4 5 5 4 3 3 3 1 1 0 2 1 1 4 4 6 5 4 5 5 5 6 7 8 8 13 10 13 13 13 12 11 11 11 11 10 9 9 9 8 8 8 8 8 8 8 8 7 7 7 7 7 6
8 9 9 10 8 8 7 7 6 6 6 4 5 6 6 6 7 6 6 6 6 6 5 4 5 4 3 2 3 3 4 3 4 5 4 5 5 2 0 2 1 1 1 1 2 1 3 4 5 5 5 6 5 6 6 7 7 10 12 8 13 11 11 11 11 12 12 12 11 11 10 10 10 10 10 9 9 9 9 9 8 8 8 7 7
9 10 10 10 8 8 9 8 6 6 6 6 4 4 6 6 6 7 6 6 6 6 5 4 4 3 4 3 2 3 1 2 5 5 5 5 3 3 1 2 1 1 1 1 1 1 2 3 5 4 3 4 5 4 4 4 4 8 12 7 9 12 12 12 12 12 13 13 13 13 12 12 12 12 11 11 10 10 10 10 10 10 9 8 8
9 9 10 10 10 9 9 7 7 7 6 7 5 4 5 7 6 6 6 5 6 6 5 5 5 5 4 4 5 2 3 3 3 3 5 6 6 5 4 2 1 1 1 1 1 2 4 3 3 3 5 4 4 4 3 3 4 6 7 7 5 12 12 11 12 12 13 14 14 14 14 13 14 14 13 13 12 12 12 11 11 11 11 10 9
8 10 10 10 11 10 8 7 8 8 7 7 7 5 4 7 6 6 6 5 6 6 7 6 6 6 6 5 3 4 4 5 4 5 5 6 6 6 6 5 5 2 1 1 1 1 2 1 2 1 3 4 3 3 4 4 3 6 7 4 5 6 11 13 13 13 14 13 13 14 15 15 14 14 14 13 13 12 12 12 12 13 12 12 11
8 9 10 9 11 10 9 9 9 8 8 7 7 6 6 6 6 6 7 6 6 7 6 6 5 6 5 5 6 5 4 4 4 5 5 5 6 6 6 6 6 4 1 1 2 1 3 1 0 2 1 3 4 3 3 4 5 5 3 4 5 5 8 12 13 14 14 14 14 13 13 14 14 14 14 15 15 14 14 14 13 13 13 13 13
10 8 9 10 11 11 9 9 9 9 9 8 7 7 7 7 6 6 6 6 6 5 6 5 5 3 4 5 5 5 4 5 5 4 4 6 6 6 5 5 6 6 4 4 4 2 2 3 0 0 1 1 2 3 3 5 8 8 4 5 5 5 9 12 11 10 10 11 12 13 13 13 14 15 15 15 15 16 15 14 14 14 14 13 14
10 10 9 10 11 11 10 10 9 10 9 8 8 7 7 7 7 6 6 5 6 7 6 6 5 4 4 5 5 5 5 4 4 4 4 6 6 6 5 5 5 5 5 4 1 4 2 3 1 1 0 1 2 2 2 4 7 8 6 6 6 9 11 9 12 12 10 11 12 13 13 13 13 14 15 16 16 15 15 15 15 15 15 15 15
11 11 10 11 11 11 10 11 10 10 9 9 9 7 8 8 7 7 7 6 6 6 6 6 5 5 4 4 4 4 5 5 4 4 4 5 6 6 6 6 6 6 6 5 5 6 3 2 2 3 4 3 4 4 5 5 4 8 5 6 6 9 7 6 9 11 13 13 12 13 13 14 15 16 16 16 16 16 12 15 16 16 17 18 17
12 12 12 11 12 12 12 11 11 10 10 9 9 8 8 8 8 8 8 7 8 6 6 7 6 6 6 5 4 4 4 4 5 5 5 6 5 5 5 6 6 6 6 6 5 6 4 3 3 4 4 4 3 4 5 4 4 3 5 5 5 5 6 6 6 10 11 13 14 14 14 14 14 15 16 17 18 17 16 15 18 18 18 18 17
12 12 13 11 11 12 12 12 12 11 11 11 10 9 9 10 9 8 9 10 8 8 6 7 7 6 6 6 6 6 5 6 5 5 5 5 4 4 4 5 6 6 6 6 6 6 6 2 4 4 3 3 5 3 4 4 5 4 4 5 5 6 6 6 6 6 11 12 13 14 14 14 14 15 16 17 18 18 18 18 18 18 18 17 17
12 12 13 13 12 13 12 12 12 12 12 11 10 11 10 11 11 10 9 10 10 9 9 9 7 6 6 7 7 6 5 6 5 6 5 5 5 6 6 6 7 6 5 6 4 4 5 5 5 4 4 4 5 5 4 5 5 5 5 5 6 6 6 7 7 6 10 13 14 13 13 12 12 14 15 16 17 18 18 18 17 17 18 18 17
13 12 12 13 13 13 13 12 12 12 12 11 11 11 12 11 11 11 10 10 10 10 9 9 8 8 8 7 6 6 5 6 6 6 6 6 7 6 5 5 6 6 6 5 5 5 5 5 4 5 5 4 5 5 4 4 5 5 5 5 5 6 6 6 7 7 9 13 13 13 13 13 13 13 15 16 16 17 17 17 17 17 17 17 17
13 12 11 12 13 13 13 13 13 13 13 13 12 12 11 11 12 11 11 10 10 10 10 10 9 9 9 8 7 6 6 7 6 6 6 7 7 7 6 5 5 5 4 5 6 5 5 6 5 4 5 4 5 5 4 5 5 5 4 5 6 6 6 6 6 6 9 13 13 13 13 13 15 16 16 16 16 17 17 16 17 17 18 18 18
13 13 13 12 13 14 13 14 14 13 13 13 13 13 13 12 12 11 11 10 10 9 9 10 11 9 8 8 7 7 7 8 8 7 7 8 6 6 5 5 5 4 6 6 6 6 6 7 6 6 4 5 4 4 4 5 5 5 5 5 4 4 4 5 5 5 4 4 4 5 7 10 12 16 16 16 17 18 18 18 17 17 18 18 18
14 13 13 14 12 13 13 13 14 14 13 13 13 13 13 12 13 12 12 11 10 10 9 9 8 8 8 7 7 8 8 8 8 8 7 7 7 7 8 7 6 6 6 6 5 5 6 6 6 7 6 5 5 6 5 4 4 4 5 5 5 4 3 4 5 4 4 5 5 8 8 9 11 9 11 13 15 17 17 17 16 16 16 17 18
14 14 14 14 12 12 13 13 13 12 12 12 12 12 12 12 12 12 12 12 11 10 8 7 7 8 8 8 9 9 9 8 8 8 9 8 8 8 8 7 7 7 7 6 5 6 6 6 7 7 6 6 4 4 3 1 2 3 2 3 5 5 6 3 3 4 2 3 5 5 6 9 9 11 13 15 16 15 15 14 15 16 17 17 16
12 13 12 13 12 12 12 12 11 11 11 11 11 12 12 12 11 12 13 11 9 8 7 8 8 8 8 8 9 10 10 11 12 10 9 9 8 8 7 6 7 7 6 6 6 6 6 6 7 5 5 6 5 4 4 4 4 6 3 1 3 3 3 4 5 4 4 5 5 5 6 6 7 6 5 5 5 6 7 9 9 13 14 14 15
13 11 11 12 13 13 12 12 11 10 11 9 12 18 16 12 12 10 8 9 8 8 8 7 8 9 9 8 8 11 13 15 14 14 13 13 12 10 8 8 8 7 7 6 6 6 6 6 7 6 6 7 6 5 5 4 4 2 1 1 2 4 3 5 5 4 3 4 4 6 6 5 4 4 4 6 6 6 7 7 8 11 13 16 15
14 12 11 13 13 13 14 13 13 11 10 10 16 16 18 17 11 9 9 9 9 10 10 9 9 9 8 7 6 11 13 14 14 18 15 15 15 14 13 13 10 9 7 7 6 6 6 6 6 5 6 7 6 5 5 5 3 3 3 2 4 3 4 4 6 5 3 4 3 4 7 4 4 6 6 8 9 8 8 9 13 15 16 16 16
13 11 12 14 13 13 11 12 12 11 10 12 16 17 18 17 15 10 9 9 10 10 9 10 8 8 8 9 8 7 8 10 10 12 15 16 14 13 12 11 11 11 10 8 7 5 5 6 5 7 5 6 6 5 5 3 4 4 4 4 4 5 5 4 4 6 4 4 7 6 8 6 5 6 7 8 9 8 9 12 15 16 16 16 16
11 12 12 12 12 11 12 12 12 12 11 14 17 18 18 18 17 13 9 10 10 10 10 9 9 8 8 8 8 7 6 9 9 9 9 9 11 11 9 8 7 9 10 12 10 6 4 5 6 7 7 5 5 6 5 4 3 4 4 5 4 4 5 5 6 6 8 4 4 7 9 7 5 6 7 8 9 8 9 12 16 16 16 16 16
12 12 11 11 11 11 11 12 12 13 13 14 18 19 19 19 17 15 10 10 9 9 9 9 8 8 9 8 7 8 7 9 8 7 7 7 4 2 0 2 4 8 10 10 9 9 7 7 7 8 8 4 7 6 6 3 3 5 4 6 5 5 5 7 7 6 7 4 6 7 7 6 6 7 8 9 9 8 7 10 14 13 13 14 14
12 13 12 10 10 11 12 12 13 12 11 15 18 19 19 19 19 16 9 7 8 8 8 9 8 7 7 9 8 8 7 8 7 9 6 6 7 7 5 2 4 7 7 5 4 5 6 6 7 9 9 7 8 7 5 4 6 6 5 5 6 6 6 4 4 5 7 7 8 5 7 5 5 6 7 7 5 5 4 6 8 9 9 11 11
9 10 9 9 11 12 12 12 11 11 9 16 18 19 20 19 19 11 9 9 8 7 7 5 6 7 8 8 8 7 7 8 6 9 5 2 3 1 2 5 7 7 7 6 4 6 7 8 7 8 9 9 8 6 6 6 5 3 4 2 2 4 4 5 7 4 5 6 7 6 5 4 2 3 3 4 4 5 5 6 8 12 13 14 15
9 10 10 9 10 12 12 10 11 10 7 14 18 19 20 20 14 10 10 9 8 6 6 4 3 3 4 4 6 6 3 3 11 12 2 2 2 3 6 8 7 6 8 6 7 11 13 13 11 9 8 8 5 5 5 6 6 6 2 2 7 6 4 6 5 4 6 6 4 4 3 6 2 3 6 4 4 6 6 6 5 8 12 13 14
9 9 8 8 9 10 11 11 11 11 8 12 18 19 19 19 16 12 10 9 9 8 5 3 2 0 3 6 3 7 9 7 11 10 9 3 1 5 6 8 7 7 7 5 5 4 5 6 6 7 7 7 7 8 9 10 11 6 2 7 8 2 4 5 6 5 5 4 5 2 4 4 4 3 7 6 5 3 5 6 7 8 11 11 13
9 8 8 8 8 7 9 8 10 9 6 10 16 18 19 18 15 9 8 8 8 7 6 5 4 1 5 8 11 8 8 6 12 6 3 1 5 8 8 6 7 8 6 2 1 1 2 3 2 2 2 4 3 3 4 9 11 8 6 8 6 4 6 6 6 5 5 4 2 4 7 5 6 4 3 6 7 5 4 6 7 6 6 6 8
Wind_Direction
179 187 158 145 163 151 154 180 153 144 136 116 120 130 107 86 69 55 22 345 348 305 327 313 348 323 256 212 281 324 151 173 195 180 177 157 165 178 179 186 185 181 180 184 186 189 194 196 197 197 197 198 195 195 197 195 195 197 193 192 192 192 193 195 201 203 204 204 205 204 203 202 204 200 208 213 218 222 226 228 235 241 243 242 240
172 177 151 150 156 161 174 173 142 149 121 130 157 126 108 65 51 25 34 9 346 299 318 320 343 333 300 51 360 30 54 114 152 169 169 172 165 164 183 188 186 180 183 183 186 193 196 198 200 201 202 200 196 197 200 201 202 200 200 196 194 197 198 197 198 204 206 207 209 210 208 207 206 207 204 208 213 217 224 229 233 239 244 245 244
166 166 143 152 160 154 156 147 142 159 143 135 123 121 119 112 107 83 12 8 301 295 309 314 336 339 320 48 334 39 73 14 356 125 179 171 138 165 188 186 185 185 185 182 185 193 196 200 203 204 205 206 203 200 198 201 201 219 208 204 203 202 203 200 198 203 204 206 209 212 214 213 213 211 209 210 213 216 218 225 228 232 237 241 243
150 144 147 156 154 154 159 150 168 145 135 123 120 123 120 142 132 153 222 225 308 310 312 314 313 297 62 46 6 348 14 9 5 73 140 107 145 171 165 174 188 187 188 190 190 191 193 198 202 206 207 211 209 208 202 198 202 213 223 217 213 212 210 210 207 208 211 212 212 214 217 219 220 220 220 218 220 223 223 225 228 230 233 236 237
156 161 150 157 158 161 168 172 161 145 127 126 128 127 109 92 99 156 247 18 328 302 299 269 121 298 62 287 49 345 290 17 329 343 144 149 154 148 130 161 174 194 196 199 200 199 198 198 199 201 206 212 218 216 211 197 206 217 217 234 233 231 220 219 216 215 216 217 215 217 217 218 220 223 224 225 226 228 230 231 233 234 235 235 236
160 171 152 148 158 165 167 156 159 136 120 119 122 132 115 120 220 155 272 309 299 282 267 56 161 73 30 295 334 279 352 2 357 246 110 159 161 147 151 158 178 182 187 200 203 204 203 204 205 202 205 209 218 224 221 210 206 218 225 230 242 249 241 223 220 221 227 218 228 228 230 227 224 223 225 226 227 230 233 235 236 238 239 239 240
161 161 163 156 155 167 156 156 147 132 126 137 123 103 113 179 191 171 254 243 233 266 285 122 161 196 195 260 268 331 25 20 342 56 96 107 140 148 151 163 180 174 178 166 197 200 199 198 200 203 204 209 218 225 223 215 211 218 227 232 233 242 254 234 212 226 209 211 222 235 246 250 236 230 228 229 229 229 231 233 235 238 239 240 240
163 161 168 174 169 154 158 142 137 123 133 138 132 125 129 102 195 163 271 275 305 310 354 329 266 197 224 264 301 12 31 43 53 62 37 107 122 134 145 151 162 186 175 166 178 188 197 204 208 202 206 210 216 220 221 213 209 209 223 230 232 237 248 243 225 220 232 224 228 229 235 245 252 244 235 233 232 231 231 234 236 236 238 240 240
172 169 161 170 187 144 149 140 137 131 140 148 136 151 154 177 232 238 195 236 5 335 341 312 50 228 141 138 126 72 49 52 96 89 24 77 118 126 129 132 140 154 156 166 160 165 182 194 206 212 206 205 219 220 224 218 217 214 220 227 231 235 242 247 242 235 228 234 234 238 240 241 245 248 246 241 238 235 234 236 238 239 240 241 242
172 171 169 170 167 149 142 135 126 129 129 138 156 153 180 153 218 246 195 128 334 289 295 315 339 339 53 121 130 82 77 341 267 126 146 152 127 134 126 127 129 134 130 132 143 145 146 182 190 202 209 206 210 213 224 225 220 214 222 223 227 229 231 238 243 239 240 243 240 237 239 246 251 253 248 248 247 247 243 240 241 242 243 244 243
162 161 160 170 162 156 134 133 133 138 150 167 163 177 182 194 200 222 187 163 182 248 239 276 318 4 98 169 133 109 354 275 11 335 327 159 161 129 128 135 132 128 124 121 115 128 136 147 150 159 191 208 208 206 210 219 219 218 215 219 230 250 247 239 242 247 240 242 246 245 244 245 249 252 253 250 252 252 253 249 247 246 249 248 250
150 148 150 152 196 153 133 135 141 148 169 174 174 170 192 181 155 119 103 262 233 232 252 211 60 17 222 185 153 153 229 265 314 296 307 115 96 100 94 94 92 125 122 123 122 129 141 148 156 150 126 155 193 193 194 209 206 225 239 225 214 218 244 251 253 253 252 253 249 248 247 249 252 253 252 251 251 253 254 254 254 248 249 246 249
155 152 154 142 83 102 138 151 157 165 181 189 168 186 173 146 142 150 157 253 295 231 159 105 81 350 5 75 164 234 227 228 253 278 294 76 118 108 116 97 92 95 113 123 130 132 136 146 143 138 131 122 143 148 147 144 153 182 252 236 245 252 248 257 264 262 259 254 250 251 253 251 252 254 257 257 256 250 249 250 252 252 252 256 255
151 152 147 127 133 124 147 160 172 182 182 183 167 151 132 114 136 91 234 159 215 147 152 92 35 93 33 9 327 324 302 316 267 241 136 116 116 105 92 91 82 80 101 128 134 135 137 143 141 129 129 121 104 80 96 93 103 103 73 45 70 205 234 258 273 266 266 263 260 255 258 260 258 256 257 259 259 257 255 248 244 243 241 247 252
154 163 153 139 148 160 170 180 180 171 167 173 135 147 142 150 149 151 92 325 209 184 146 120 152 106 116 90 321 359 324 355 305 318 108 156 135 119 113 110 108 107 117 117 125 124 123 131 136 146 143 122 114 121 100 106 109 98 77 60 47 31 7 337 347 338 301 285 282 281 265 266 270 267 263 259 259 254 253 254 251 244 240 240 243
159 160 153 152 158 175 169 183 184 177 167 146 148 155 165 153 157 160 128 61 360 275 139 113 133 109 21 145 203 130 353 321 309 285 117 139 120 112 133 133 118 113 112 116 125 126 133 123 125 132 151 144 143 124 113 148 121 104 99 87 75 61 40 12 331 53 31 19 355 345 344 294 290 293 282 275 263 258 255 256 256 257 247 247 244
161 164 162 168 169 178 176 181 179 179 156 147 164 171 183 175 159 127 130 147 64 334 45 117 120 139 142 93 36 47 215 242 312 306 56 99 129 152 136 130 127 128 131 131 134 143 147 144 148 130 131 146 144 142 146 135 118 119 104 108 105 90 72 61 69 59 31 35 32 16 357 330 314 305 298 288 284 282 270 257 247 247 253 251 250
172 176 175 171 177 181 176 167 167 165 151 160 170 165 176 164 177 148 141 118 138 48 28 119 141 134 147 163 168 166 190 270 72 83 320 64 141 143 143 162 149 141 135 138 141 160 151 151 152 146 140 154 158 154 154 159 154 140 150 139 119 114 109 86 82 73 43 26 12 356 357 330 321 308 310 312 307 303 297 287 268 251 253 257 254
176 180 174 173 167 172 169 165 160 160 169 153 176 179 160 169 153 108 130 122 91 82 39 156 9 33 100 143 134 165 160 108 191 137 21 321 44 119 184 189 152 137 147 164 148 146 154 149 154 149 142 149 150 153 160 164 159 165 160 151 149 149 149 159 163 163 168 231 269 287 293 291 287 294 301 303 302 302 307 303 304 303 274 257 257
175 171 168 165 166 169 166 162 164 176 160 167 169 198 127 113 126 139 129 115 122 133 127 86 113 250 57 135 207 83 71 91 136 145 163 134 335 328 65 93 183 139 163 156 157 148 147 153 145 152 149 149 154 161 162 163 166 171 166 167 168 167 168 174 185 196 197 207 225 248 265 266 272 277 283 294 301 303 304 303 303 297 297 296 290
171 166 166 168 171 170 165 164 167 178 168 173 173 150 132 137 131 118 120 119 127 148 127 126 99 172 108 52 54 49 51 92 126 96 119 97 310 42 4 353 36 105 137 168 172 152 166 169 173 154 168 173 169 160 162 166 172 179 178 178 178 179 180 182 193 202 204 210 222 237 254 266 268 273 279 281 289 295 299 304 304 303 300 299 297
172 164 166 170 170 169 167 165 171 174 173 180 175 148 149 145 150 148 150 144 134 134 152 163 143 146 147 157 122 71 45 49 83 86 55 131 160 105 117 78 37 293 106 163 169 181 180 175 172 174 175 183 189 160 174 173 177 183 193 188 190 189 188 192 200 204 208 216 226 234 245 255 265 271 273 277 278 280 286 292 296 296 300 305 308
168 168 164 170 168 170 175 173 176 166 179 184 179 158 165 153 153 152 153 153 156 163 154 159 138 134 142 141 167 159 172 162 189 158 147 128 71 99 110 138 165 28 258 169 169 181 191 184 183 198 196 178 194 169 173 179 183 191 194 195 195 196 196 197 203 212 216 219 224 234 243 247 256 263 265 269 273 276 278 278 282 289 293 297 298
166 165 165 169 166 172 174 180 185 167 182 182 165 162 166 155 157 160 164 162 161 161 157 163 157 187 186 178 191 171 180 197 195 153 143 173 142 170 160 221 15 320 290 359 222 161 161 191 212 203 194 195 191 178 170 176 191 198 197 200 198 200 200 201 209 217 220 220 224 233 242 251 254 257 259 261 264 272 277 277 275 278 281 283 289
168 169 172 169 166 168 174 187 188 177 186 153 152 161 156 160 157 165 161 166 169 165 157 176 190 185 204 212 174 208 234 218 142 156 149 146 132 110 219 127 146 278 288 237 250 267 210 188 197 196 187 186 175 172 174 175 183 198 192 207 202 203 204 207 214 220 221 221 222 226 230 237 242 243 246 249 256 261 268 273 274 272 270 272 277
170 176 173 170 170 173 180 189 175 178 173 166 159 149 160 159 162 159 164 171 162 165 173 192 184 184 178 193 108 169 198 146 145 137 138 111 103 134 135 18 105 225 274 348 313 14 308 252 221 191 188 170 166 167 166 172 180 198 200 196 208 205 211 216 221 227 229 227 226 226 229 233 240 243 244 244 244 246 250 258 264 266 268 269 271
174 175 174 169 174 175 183 173 173 172 168 170 169 147 155 153 163 168 168 175 166 168 189 187 193 187 172 159 171 167 132 134 102 111 134 143 149 153 125 102 346 6 318 292 297 222 237 302 255 169 188 189 177 177 179 187 198 197 191 194 202 214 219 226 231 236 236 234 233 234 233 231 236 242 244 248 249 245 243 247 252 256 258 262 263
172 174 177 169 173 180 179 167 164 162 165 167 171 158 157 143 167 170 174 179 176 179 196 197 199 196 180 181 165 172 169 143 131 124 123 133 134 139 126 136 152 244 312 329 327 287 243 262 314 187 196 175 197 185 205 196 212 210 196 187 208 220 223 226 234 241 247 249 240 236 238 240 237 238 242 244 247 251 253 250 248 252 256 256 255
175 176 176 169 173 177 173 168 167 163 164 169 163 164 161 152 164 176 175 181 173 183 194 200 213 194 182 175 192 185 180 154 150 157 155 144 144 144 148 152 163 143 185 268 280 230 301 3 54 310 143 209 200 233 203 213 225 213 201 199 214 227 234 231 231 237 242 248 254 249 239 241 245 245 244 243 245 247 249 252 251 251 250 254 257
178 176 170 171 175 176 171 168 170 171 169 170 168 163 161 167 169 182 182 174 182 193 200 201 216 195 195 203 188 181 185 159 170 160 146 155 145 154 158 157 147 161 177 191 264 224 264 307 167 212 19 320 295 283 250 242 236 222 210 221 229 238 251 256 252 243 239 241 247 250 246 238 238 244 248 249 246 245 245 245 250 255 252 250 251
177 181 173 172 175 176 173 170 171 174 174 172 168 168 166 171 176 181 193 174 181 197 204 193 211 196 195 195 190 178 162 159 167 172 163 158 158 164 170 161 168 164 174 170 200 283 189 234 287 349 334 260 256 241 246 222 238 227 218 217 226 233 240 251 261 268 254 239 237 241 244 244 241 241 243 248 251 249 247 243 245 251 253 252 248
179 179 180 175 176 175 176 175 173 174 175 177 175 170 173 176 177 184 195 185 189 195 207 201 199 195 185 187 187 167 173 162 169 172 162 175 167 172 174 176 183 182 173 174 198 247 262 207 232 274 275 266 269 280 289 286 251 234 227 227 227 233 243 254 262 261 266 264 253 245 240 241 243 245 246 247 249 250 244 247 247 246 247 251 255
179 181 183 178 178 177 177 179 177 176 178 178 179 172 177 182 183 187 192 195 196 202 194 209 207 199 198 200 204 197 179 165 175 175 167 177 174 174 176 172 187 188 172 183 198 236 284 269 238 236 246 242 280 241 248 253 265 253 230 232 235 235 239 247 256 266 263 261 262 262 261 255 246 243 245 248 251 251 249 241 247 247 246 247 249
182 182 185 181 178 177 180 180 180 180 180 180 180 177 178 186 189 188 193 196 200 200 195 201 206 198 193 199 206 204 191 188 192 190 185 169 171 191 201 181 191 195 193 177 206 206 241 286 263 276 273 229 248 243 217 245 255 249 240 238 236 229 234 233 239 244 244 245 251 255 255 256 257 252 247 247 248 250 250 249 248 250 250 247 246
185 186 183 184 179 178 180 182 181 183 182 181 182 183 185 188 192 195 195 195 198 199 201 203 201 195 188 195 200 194 189 187 186 187 184 188 196 198 205 194 191 198 195 191 172 210 229 244 217 231 233 238 219 253 244 235 236 219 224 237 237 239 232 229 234 241 247 252 255 258 258 252 249 251 252 252 252 252 252 251 249 248 249 251 250
188 190 183 182 181 182 182 183 183 183 183 183 185 187 189 190 195 198 197 197 199 203 205 203 199 196 193 187 196 193 184 187 197 196 196 193 199 193 179 179 168 184 191 188 189 200 222 246 255 214 226 223 251 245 244 250 248 247 229 242 241 239 237 236 233 234 241 243 248 253 260 262 258 252 251 251 252 251 251 252 253 255 254 252 250
191 187 187 182 182 185 187 186 186 186 187 185 185 189 192 195 198 200 200 200 201 204 206 205 202 196 194 192 193 192 191 191 203 204 202 200 200 190 184 181 177 190 194 196 208 203 213 232 253 236 223 232 235 243 235 249 261 257 258 245 248 246 245 241 236 238 241 245 250 255 258 262 264 262 258 256 256 257 257 254 253 254 257 258 258
189 190 187 187 186 188 189 189 190 190 188 188 188 189 192 194 198 202 202 203 204 202 202 202 202 197 193 192 191 196 199 198 203 202 197 200 193 189 188 193 190 189 199 210 207 205 211 230 237 268 262 241 263 245 231 219 243 268 278 275 279 266 261 276 259 250 243 243 253 255 259 259 258 257 259 259 260 260 260 259 255 253 253 257 260
189 190 191 190 191 189 190 189 192 192 190 190 191 190 192 194 197 200 203 205 206 207 205 198 195 191 190 190 194 199 208 205 194 192 190 192 191 195 194 191 196 192 201 204 196 202 209 228 243 239 253 257 232 259 264 236 234 232 252 290 295 287 253 231 262 266 261 264 256 258 261 259 257 257 253 251 252 255 259 261 263 263 262 261 261
194 191 190 192 190 189 191 194 195 192 191 191 193 192 191 194 197 201 204 206 208 211 209 206 199 197 197 198 202 205 208 208 203 200 192 193 191 194 194 186 187 187 190 195 203 210 224 231 237 244 234 247 259 253 288 345 316 308 260 218 255 277 289 282 249 267 277 258 276 281 276 274 273 267 265 266 268 268 262 261 260 258 258 260 263
197 194 189 187 187 192 194 195 194 193 193 194 192 192 193 197 198 201 205 206 206 207 211 209 206 205 204 205 205 209 205 201 202 196 194 189 184 190 200 187 186 186 194 198 207 211 224 228 246 246 249 253 252 254 269 253 230 233 240 259 273 267 269 295 291 268 253 271 271 270 269 264 274 271 272 281 280 279 271 261 261 262 263 260 258
196 191 186 185 189 190 190 193 193 194 198 198 196 192 193 195 197 201 199 202 203 205 205 206 207 206 208 209 211 207 207 207 207 208 204 198 192 188 193 193 189 188 192 197 208 213 217 228 237 236 246 252 250 229 230 229 219 231 288 251 259 273 291 284 287 274 277 286 284 279 273 271 270 288 311 302 291 281 283 278 271 265 266 267 264
192 189 183 184 190 190 190 190 194 197 198 201 191 190 194 198 194 194 191 197 206 208 207 207 208 206 210 212 214 218 219 220 220 219 213 210 204 198 195 193 184 178 185 202 218 214 216 226 231 227 235 249 250 240 237 232 216 201 207 210 242 251 260 276 284 293 284 264 264 270 279 274 286 289 288 281 276 271 262 260 261 264 263 262 264
190 186 186 190 189 188 189 190 195 197 201 196 186 189 192 197 197 189 187 196 206 208 209 209 210 207 211 215 215 215 221 222 216 219 216 213 209 200 189 183 181 191 191 188 210 222 214 220 228 234 233 239 248 237 242 223 225 215 224 220 225 241 250 245 247 262 253 269 277 275 275 278 272 262 264 260 261 254 252 254 259 261 263 265 266
181 186 191 185 188 184 185 188 194 197 203 191 183 185 191 196 197 188 188 200 206 206 206 205 205 206 210 216 217 215 219 183 187 194 190 197 197 193 185 189 206 215 219 223 219 219 188 207 224 243 231 232 240 244 227 212 191 216 220 232 240 230 225 237 246 258 272 255 266 271 272 271 264 259 252 253 254 253 254 257 258 261 265 267 268
183 188 184 183 181 182 183 187 193 198 203 184 181 182 188 193 194 192 196 203 210 210 209 208 206 207 211 216 214 214 199 190 182 171 182 181 155 104 10 261 249 252 242 233 227 223 217 221 220 234 247 216 233 236 232 214 201 230 216 232 227 236 234 238 245 249 265 267 254 269 278 269 248 249 252 256 255 256 250 253 259 268 275 278 277
182 186 184 177 178 180 182 188 195 196 201 176 177 180 185 191 195 195 188 193 208 210 208 209 207 202 206 217 220 208 191 186 173 167 167 156 155 169 203 233 264 264 262 250 208 205 217 225 224 231 243 241 239 245 249 227 225 220 195 210 220 231 243 269 299 267 276 265 260 252 267 260 232 237 247 259 283 292 283 296 298 290 286 285 284
178 179 181 173 174 179 187 189 191 194 191 171 178 179 185 192 192 191 190 201 207 210 212 205 206 213 213 214 208 195 187 182 150 115 69 74 87 119 245 241 246 251 256 250 227 211 214 212 217 224 231 236 234 234 234 221 215 232 246 272 294 262 261 271 264 274 267 269 256 249 257 263 246 263 284 291 306 298 298 301 294 293 291 290 290
164 173 175 172 173 180 184 183 184 189 181 180 176 181 186 191 182 192 195 203 214 208 198 177 180 210 222 210 205 205 179 143 109 107 117 265 182 215 242 247 247 251 259 267 248 241 241 235 229 238 248 253 260 270 262 246 225 224 197 324 279 260 254 270 269 260 258 258 259 238 279 300 342 345 302 285 291 293 296 288 283 283 284 285 285
166 166 161 164 174 178 175 177 179 179 168 182 179 182 186 185 184 190 192 200 214 217 222 221 190 177 291 250 107 76 78 104 128 144 189 204 315 264 257 249 253 256 260 260 251 253 255 254 241 224 220 227 226 229 235 244 255 262 188 244 255 270 264 250 270 261 275 276 277 32 354 278 301 318 318 307 303 259 274 279 278 275 276 276 273
160 156 161 167 171 168 170 165 158 156 147 176 184 183 186 182 186 188 187 200 209 218 217 233 234 111 70 96 128 142 116 92 80 65 330 292 233 245 244 243 248 252 251 258 274 345 343 339 333 333 310 288 269 258 265 268 266 259 219 235 257 251 258 265 275 298 297 277 261 42 344 307 326 299 310 319 304 278 251 255 264 269 273 272 272